Вернуться в каталог

MSG 1 DEB

BAFFLE COVER

LostMEO
NORAD 39999·DEBRIS·🇪🇺 EU

Запущен Aug 28, 2002 с Guiana Space Centre

Loading…

Ближайшие Пролёты (ближайшие 24 часа)

TLE

УстаревшееSource: Space-Track

Эпоха: May 18, 2026, 06:03 UTC

1 39999U 02040F   26138.25251892 -.00000311  00000-0  00000-0 0  9995
2 39999  12.1644  14.4055 0104131 105.3382 113.6615  1.01964517 41787

Отслеживайте MSG 1 DEB в реальном времени с AllMySat

Download on the App Store